Date String (YYYY-MM-DD hh:mm:ss) UTC,Instrument flags,absolute air pressure of the measurement (hPa),sample flow rate (lpm),inlet stack bypass flow (lpm),air temperature of the measurement (°C),ambient temperature measured by the external sensor (°C),aerosol sample conditioner tube jacket temperature (°C),OPC LED temperature (°C),internal box temperature (°C),relative humidity of the measurement (%),span deviation,mass concentration of particles derived from Lorenz-Mie calculation of OPC scattering (μg/m³),mass concentration of particles derived from Lorenz-Mie calculation of OPC scattering (μg/m³),mass concentration of particles derived from Lorenz-Mie calculation of OPC scattering (μg/m³)
DateTimeUTC,F1_M11,P_M11,Q1_M11,Q2_M11,T1_M11,T2_M11,T3_M11,T4_M11,T5_M11,U1_M11,ZSPAN_M11,X0_M11,X2_M11,X1_M11
2023-12-26 10:00:00,SystemResetWarning,0822.9,5.00,000.00,018.9,018.3,000.0,027.2,020.0,8.8,0000.0,0004.50,0000.99,0000.81
2023-12-26 10:01:00,SystemResetWarning,0822.9,5.00,000.00,018.9,018.2,000.0,027.2,020.0,8.9,0000.0,0004.55,0000.96,0000.78
2023-12-26 10:02:00,SystemResetWarning,0822.8,5.00,000.00,018.9,018.1,000.0,027.3,020.0,8.9,0000.0,0003.93,0001.01,0000.81
2023-12-26 10:03:00,SystemResetWarning,0822.5,5.01,000.00,018.9,018.0,000.0,027.3,020.0,9.0,0000.0,0004.04,0001.05,0000.83
2023-12-26 10:04:00,SystemResetWarning,0822.4,5.00,000.00,018.8,017.9,000.0,027.3,020.0,9.0,0000.0,0004.31,0001.04,0000.82
2023-12-26 10:05:00,SystemResetWarning,0822.4,5.00,000.00,018.8,017.9,000.0,027.3,020.0,9.1,0000.0,0004.30,0001.02,0000.81
2023-12-26 10:06:00,SystemResetWarning,0822.4,5.00,000.00,018.8,017.9,000.0,027.3,020.0,9.1,0000.0,0003.13,0001.06,0000.82
2023-12-26 10:07:00,SystemResetWarning,0822.4,5.00,000.00,018.8,017.9,000.0,027.3,020.0,9.0,0000.0,0003.04,0001.11,0000.86
2023-12-26 10:08:00,SystemResetWarning,0822.4,5.00,000.00,018.8,017.9,000.0,027.3,020.0,9.1,0000.0,0003.08,0001.15,0000.89
2023-12-26 10:09:00,SystemResetWarning,0822.4,5.00,000.00,018.8,017.8,000.0,027.3,020.0,9.1,0000.0,0003.55,0001.17,0000.91
2023-12-26 10:10:00,SystemResetWarning,0822.4,4.99,000.00,018.8,017.8,000.0,027.3,020.0,9.2,0000.0,0004.80,0001.20,0000.94
2023-12-26 10:11:00,SystemResetWarning,0822.4,5.00,000.00,018.8,017.8,000.0,027.3,020.0,9.2,0000.0,0004.58,0001.22,0000.97
2023-12-26 10:12:00,SystemResetWarning,0822.4,4.99,000.00,018.8,017.7,000.0,027.3,020.0,9.7,0000.0,0004.79,0001.28,0001.02
2023-12-26 10:13:00,SystemResetWarning,0822.5,5.00,000.00,018.8,017.7,000.0,027.3,020.0,10.2,0000.0,0004.89,0001.35,0001.07
2023-12-26 10:14:00,SystemResetWarning,0822.4,5.01,000.00,018.8,017.7,000.0,027.3,020.0,10.5,0000.0,0004.97,0001.43,0001.14
2023-12-26 10:15:00,SystemResetWarning,0822.4,5.01,000.00,018.8,017.6,000.0,027.3,020.0,10.8,0000.0,0004.75,0001.48,0001.18
2023-12-26 10:16:00,SystemResetWarning,0822.4,5.01,000.00,018.8,017.6,000.0,027.3,020.0,11.1,0000.0,0004.79,0001.51,0001.20
2023-12-26 10:17:00,SystemResetWarning,0822.4,4.99,000.00,018.8,017.5,000.0,027.3,020.0,11.3,0000.0,0004.95,0001.55,0001.23
2023-12-26 10:18:00,SystemResetWarning,0822.4,4.99,000.00,018.7,017.5,000.0,027.3,020.0,11.4,0000.0,0005.14,0001.55,0001.24
2023-12-26 10:19:00,SystemResetWarning,0822.4,5.00,000.00,018.8,017.8,000.0,027.2,020.2,11.4,0000.0,0005.10,0001.54,0001.25
2023-12-26 10:20:00,SystemResetWarning,0822.4,5.01,000.00,018.9,018.6,000.0,027.2,020.6,11.5,0000.0,0004.83,0001.55,0001.28
2023-12-26 10:21:00,SystemResetWarning,0822.4,4.99,000.00,019.0,019.1,000.0,027.2,020.7,11.5,0000.0,0003.52,0001.63,0001.34
2023-12-26 10:22:00,SystemResetWarning,0822.4,4.99,000.00,019.0,019.0,000.0,027.2,020.3,11.6,0000.0,0003.60,0001.72,0001.43
2023-12-26 10:23:00,SystemResetWarning,0822.4,5.02,000.00,019.0,018.8,000.0,027.2,020.0,11.2,0000.0,0003.17,0001.81,0001.51
2023-12-26 10:24:00,SystemResetWarning,0822.3,5.00,000.00,018.9,018.6,000.0,027.2,020.0,11.1,0000.0,0002.93,0001.89,0001.59
2023-12-26 10:25:00,SystemResetWarning,0822.3,4.99,000.00,018.9,018.3,000.0,027.2,020.0,10.9,0000.0,0002.97,0001.95,0001.66
2023-12-26 10:26:00,SystemResetWarning,0822.3,4.99,000.00,018.8,018.1,000.0,027.3,020.0,11.1,0000.0,0003.02,0002.02,0001.74
2023-12-26 10:27:00,SystemResetWarning,0822.2,5.01,000.00,018.8,017.9,000.0,027.3,020.0,11.4,0000.0,0003.24,0002.20,0001.90
2023-12-26 10:28:00,SystemResetWarning,0822.2,5.01,000.00,018.8,017.8,000.0,027.3,020.0,11.4,0000.0,0003.30,0002.32,0002.03
2023-12-26 10:29:00,SystemResetWarning,0822.2,5.01,000.00,018.8,017.7,000.0,027.3,020.0,11.5,0000.0,0003.22,0002.48,0002.16
2023-12-26 10:30:00,SystemResetWarning,0822.2,5.00,000.00,018.8,017.6,000.0,027.3,020.0,11.5,0000.0,0003.60,0002.64,0002.28
2023-12-26 10:31:00,SystemResetWarning,0822.2,5.00,000.00,018.8,017.6,000.0,027.3,020.0,11.3,0000.0,0004.00,0002.78,0002.38
2023-12-26 10:32:00,SystemResetWarning,0822.2,5.00,000.00,018.8,017.6,000.0,027.3,020.0,11.4,0000.0,0004.06,0002.81,0002.40
2023-12-26 10:33:00,SystemResetWarning,0822.2,5.00,000.00,018.8,017.6,000.0,027.3,020.0,11.4,0000.0,0004.31,0002.79,0002.38
2023-12-26 10:34:00,SystemResetWarning,0822.2,5.00,000.00,018.8,017.6,000.0,027.3,020.0,11.3,0000.0,0005.69,0002.77,0002.35
2023-12-26 10:35:00,SystemResetWarning,0822.2,5.00,000.00,018.8,017.6,000.0,027.3,020.0,11.3,0000.0,0005.64,0002.75,0002.33
2023-12-26 10:36:00,SystemResetWarning,0822.2,5.00,000.00,018.8,017.5,000.0,027.3,020.0,11.5,0000.0,0006.85,0002.77,0002.32
2023-12-26 10:37:00,SystemResetWarning,0822.3,5.00,000.00,018.7,017.4,000.0,027.3,020.0,11.6,0000.0,0007.61,0002.75,0002.29
2023-12-26 10:38:00,SystemResetWarning,0822.2,5.00,000.00,018.7,017.4,000.0,027.3,020.0,11.7,0000.0,0007.82,0002.72,0002.26
2023-12-26 10:39:00,SystemResetWarning,0822.3,5.01,000.00,018.8,018.0,000.0,027.2,020.4,11.8,0000.0,0007.78,0002.65,0002.22
2023-12-26 10:40:00,SystemResetWarning,0822.3,5.01,000.00,018.9,018.9,000.0,027.2,020.8,11.6,0000.0,0007.71,0002.58,0002.16
2023-12-26 10:41:00,SystemResetWarning,0822.2,4.98,000.00,019.0,019.1,000.0,027.2,020.5,11.3,0000.0,0007.72,0002.57,0002.12
2023-12-26 10:42:00,SystemResetWarning,0822.1,5.00,000.00,019.0,018.8,000.0,027.2,020.1,11.2,0000.0,0007.55,0002.53,0002.08
2023-12-26 10:43:00,SystemResetWarning,0822.1,5.00,000.00,018.9,018.5,000.0,027.2,020.0,11.3,0000.0,0007.55,0002.52,0002.07
2023-12-26 10:44:00,SystemResetWarning,0822.1,5.00,000.00,018.9,018.3,000.0,027.3,020.0,11.4,0000.0,0007.53,0002.54,0002.09
2023-12-26 10:45:00,SystemResetWarning,0822.1,4.99,000.00,018.8,018.1,000.0,027.3,020.0,11.4,0000.0,0006.17,0002.54,0002.10
2023-12-26 10:46:00,SystemResetWarning,0822.1,4.99,000.00,018.8,017.9,000.0,027.3,020.0,11.5,0000.0,0006.12,0002.52,0002.09
2023-12-26 10:47:00,SystemResetWarning,0822.2,5.01,000.00,018.8,017.7,000.0,027.3,020.0,11.6,0000.0,0005.28,0002.48,0002.08
2023-12-26 10:48:00,SystemResetWarning,0822.2,5.01,000.00,018.8,017.6,000.0,027.3,020.0,11.7,0000.0,0004.09,0002.46,0002.06
2023-12-26 10:49:00,SystemResetWarning,0822.3,5.01,000.00,018.8,017.5,000.0,027.3,020.0,11.8,0000.0,0003.46,0002.43,0002.02
2023-12-26 10:50:00,SystemResetWarning,0822.2,4.99,000.00,018.8,017.4,000.0,027.3,020.0,11.8,0000.0,0003.47,0002.42,0001.98
2023-12-26 10:51:00,SystemResetWarning,0822.2,4.99,000.00,018.8,017.5,000.0,027.3,020.0,11.8,0000.0,0003.48,0002.42,0001.96
2023-12-26 10:52:00,SystemResetWarning,0822.2,5.01,000.00,018.7,017.5,000.0,027.3,020.0,11.4,0000.0,0003.60,0002.32,0001.91
2023-12-26 10:53:00,SystemResetWarning,0822.3,5.01,000.00,018.7,017.5,000.0,027.3,020.0,10.8,0000.0,0004.00,0002.27,0001.87
2023-12-26 10:54:00,SystemResetWarning,0822.2,4.99,000.00,018.7,017.4,000.0,027.3,020.0,10.4,0000.0,0004.27,0002.23,0001.84
2023-12-26 10:55:00,SystemResetWarning,0822.2,4.99,000.00,018.7,017.3,000.0,027.3,020.0,10.1,0000.0,0004.52,0002.19,0001.81
2023-12-26 10:56:00,SystemResetWarning,0822.2,5.00,000.00,018.8,017.8,000.0,027.2,020.3,10.3,0000.0,0004.65,0002.19,0001.78
2023-12-26 10:57:00,SystemResetWarning,0822.3,5.02,000.00,018.9,018.8,000.0,027.2,020.7,10.4,0000.0,0004.67,0002.20,0001.76
2023-12-26 10:58:00,SystemResetWarning,0822.2,4.97,000.00,019.0,019.0,000.0,027.2,020.5,10.3,0000.0,0004.53,0002.12,0001.71
2023-12-26 10:59:00,SystemResetWarning,0822.1,5.01,000.00,018.9,018.8,000.0,027.2,020.1,10.3,0000.0,0004.51,0002.10,0001.67
